User: anonymous   Login
Location: Nairn
(57.5833°N, 3.8667°W)
Time: 01:47:23
(UTC+00:00)
Language:

Cosmos 773 Rocket - Orbit

View from above orbital plane
View from above orbital plane
View from above satellite
View from above satellite

Ground track
Ground track

The orbit data is extracted from the following two-line orbital elements,

1  8344U 75094B   20302.69925264  .00000040  00000-0  21321-4 0  9991
2  8344  74.0593  19.8867 0022602 330.4296  29.5579 14.39160983362559
Epoch (UTC): 28 October 2020 16:46:55
Eccentricity: 0.0022602
inclination: 74.0593°
perigee height: 745 km
apogee height: 777 km
right ascension of ascending node: 19.8867°
argument of perigee: 330.4296°
revolutions per day: 14.39160983
mean anomaly at epoch: 29.5579°
orbit number at epoch: 36255

The dashed part of the orbit path shows where the satellite is in the earth's shadow,  

DLR